Meadville, PA

8:35 AM EDT on March 23, 2017 (GMT -0400)
Port Meadville

Weather History for KGKJ - March, 2013

Change the Weather History Date:

Wednesday, March 13, 2013

  Actual Average Record
Temperature  
Mean Temperature 28 °F -  
Max Temperature 32 °F 42 °F 77 °F (1990)
Min Temperature 24 °F 23 °F -4 °F (1984)
Degree Days  
Heating Degree Days 37    
Moisture  
Dew Point 22 °F    
Average Humidity 79    
Maximum Humidity 93    
Minimum Humidity 63    
Precipitation  
Precipitation 0.01 in - - ()
Sea Level Pressure  
Sea Level Pressure 29.94 in    
Wind  
Wind Speed 10 mph (West)    
Max Wind Speed 23 mph    
Max Gust Speed 32 mph    
Visibility 4 miles    
Events Fog , Snow    
Averages and records for this station are not official NWS values.
T = Trace of Precipitation, MM = Missing Value Source: NWS Daily Summary

Daily Weather History Graph

Daily Weather History Graph

Search for Another Location

Airport or City:

Trip Planner

Search our weather history database for the weather conditions in past years. The results will help you decide how hot, cold, wet, or windy it might be!

Date:

Astronomy

Mar. 13, 2013 Rise Set
Actual Time 7:35 AM EDT 7:25 PM EDT
Civil Twilight 7:07 AM EDT 7:53 PM EDT
Nautical Twilight 6:35 AM EDT 8:25 PM EDT
Astronomical Twilight 6:03 AM EDT 8:58 PM EDT
Moon 8:12 AM EDT (3/13) 9:43 PM EDT (3/13)
Length of Visible Light 12h 45m
Length of Day
11h 49m
Waxing Crescent, 4% of the Moon is Illuminated
Mar 13
Waxing Crescent
Mar 19
First Quarter
Mar 27
Full
Apr 3
Last Quarter
Apr 10
New

Hourly Weather History & Observations

Time (EDT) Temp. Windchill Dew Point Humidity Pressure Visibility Wind Dir Wind Speed Gust Speed Precip Events Conditions
12:53 AM 32.0 °F 26.4 °F 24.1 °F 73% 29.95 in 9.0 mi SSW 5.8 mph - N/A   Overcast
1:13 AM 30.2 °F 25.4 °F 23.0 °F 75% 29.91 in 10.0 mi SSW 4.6 mph - N/A   Overcast
1:53 AM 30.9 °F 26.2 °F 24.1 °F 76% 29.94 in 10.0 mi SSW 4.6 mph - N/A   Overcast
2:01 AM 30.2 °F 25.4 °F 24.8 °F 80% 29.90 in 10.0 mi SSW 4.6 mph - N/A   Overcast
2:53 AM 30.9 °F 24.3 °F 23.0 °F 72% 29.93 in 10.0 mi WSW 6.9 mph - N/A   Mostly Cloudy
3:53 AM 28.9 °F 23.9 °F 23.0 °F 78% 29.91 in 9.0 mi SSW 4.6 mph - N/A   Partly Cloudy
4:53 AM 28.9 °F 23.9 °F 23.0 °F 78% 29.89 in 8.0 mi SSW 4.6 mph - N/A   Mostly Cloudy
5:53 AM 30.0 °F 23.2 °F 25.0 °F 82% 29.89 in 3.0 mi SSW 6.9 mph - 0.00 in Snow Light Snow
5:57 AM 30.2 °F 22.6 °F 24.8 °F 80% 29.85 in 1.8 mi SSW 8.1 mph - 0.00 in Snow Light Snow
6:05 AM 30.2 °F 23.4 °F 26.6 °F 86% 29.85 in 0.8 mi SW 6.9 mph - 0.00 in Snow Light Snow
6:12 AM 28.4 °F 22.2 °F 26.6 °F 93% 29.85 in 0.8 mi SW 5.8 mph - 0.00 in Snow Light Snow
6:29 AM 28.4 °F 22.2 °F 26.6 °F 93% 29.85 in 0.8 mi SW 5.8 mph - 0.00 in Snow Light Snow
6:37 AM 28.4 °F 21.2 °F 26.6 °F 93% 29.85 in 1.2 mi SSW 6.9 mph - 0.00 in Snow Light Snow
6:50 AM 28.4 °F 22.2 °F 26.6 °F 93% 29.85 in 2.0 mi SW 5.8 mph - 0.00 in Snow Light Snow
6:53 AM 28.9 °F 22.8 °F 27.0 °F 92% 29.89 in 2.0 mi SW 5.8 mph - 0.00 in Snow Light Snow
7:01 AM 30.2 °F 22.6 °F 26.6 °F 86% 29.85 in 3.0 mi WSW 8.1 mph - 0.00 in   Overcast
7:11 AM 30.2 °F 23.4 °F 26.6 °F 86% 29.85 in 5.0 mi SW 6.9 mph - 0.00 in   Overcast
7:31 AM 28.4 °F 22.2 °F 24.8 °F 86% 29.85 in 5.0 mi SW 5.8 mph - 0.00 in   Overcast
7:53 AM 30.0 °F 22.4 °F 25.0 °F 82% 29.89 in 5.0 mi WSW 8.1 mph - 0.00 in   Haze
8:53 AM 30.0 °F 21.7 °F 25.0 °F 82% 29.89 in 4.0 mi SW 9.2 mph - N/A   Haze
9:11 AM 30.2 °F 23.4 °F 24.8 °F 80% 29.86 in 5.0 mi SW 6.9 mph - N/A   Haze
9:53 AM 30.9 °F 22.8 °F 23.0 °F 72% 29.90 in 8.0 mi SW 9.2 mph 17.3 mph N/A   Overcast
10:06 AM 30.2 °F 21.9 °F 23.0 °F 75% 29.86 in 9.0 mi SW 9.2 mph 19.6 mph N/A   Overcast
10:45 AM 30.2 °F 19.8 °F 21.2 °F 69% 29.87 in 10.0 mi West 13.8 mph 21.9 mph N/A   Overcast
10:53 AM 30.9 °F 19.4 °F 21.0 °F 67% 29.92 in 10.0 mi WSW 17.3 mph 25.3 mph N/A   Overcast
11:00 AM 30.2 °F 18.9 °F 21.2 °F 69% 29.88 in 10.0 mi West 16.1 mph - N/A   Overcast
11:14 AM 30.2 °F 19.8 °F 19.4 °F 64% 29.88 in 10.0 mi West 13.8 mph 28.8 mph N/A   Overcast
11:53 AM 30.9 °F 19.8 °F 19.9 °F 64% 29.93 in 10.0 mi West 16.1 mph 23.0 mph N/A   Overcast
12:13 PM 30.2 °F 18.9 °F 21.2 °F 69% 29.89 in 7.0 mi West 16.1 mph 23.0 mph 0.01 in   Overcast
12:19 PM 30.2 °F 21.3 °F 21.2 °F 69% 29.89 in 2.5 mi West 10.4 mph 23.0 mph 0.01 in Snow Light Snow
12:25 PM 30.2 °F 19.3 °F 21.2 °F 69% 29.89 in 1.8 mi West 15.0 mph 23.0 mph 0.01 in Snow Light Snow
12:37 PM 30.2 °F 20.8 °F 21.2 °F 69% 29.89 in 2.5 mi West 11.5 mph - 0.01 in Snow Light Snow
12:44 PM 30.2 °F 19.3 °F 21.2 °F 69% 29.90 in 8.0 mi WNW 15.0 mph 23.0 mph 0.01 in   Overcast
12:50 PM 28.4 °F 17.5 °F 23.0 °F 80% 29.90 in 1.8 mi WNW 13.8 mph 23.0 mph 0.01 in Snow Light Snow
12:53 PM 28.9 °F 21.1 °F 23.0 °F 78% 29.94 in 1.0 mi WNW 8.1 mph 19.6 mph 0.01 in Snow Light Snow
1:00 PM 28.4 °F 18.5 °F 24.8 °F 86% 29.90 in 0.8 mi WNW 11.5 mph 17.3 mph 0.00 in Snow Light Snow
1:04 PM 28.4 °F 20.4 °F 24.8 °F 86% 29.90 in 1.0 mi West 8.1 mph - 0.00 in Snow Light Snow
1:07 PM 28.4 °F 20.4 °F 24.8 °F 86% 29.90 in 0.8 mi West 8.1 mph 16.1 mph 0.00 in Snow Light Snow
1:21 PM 30.2 °F 22.6 °F 24.8 °F 80% 29.90 in 1.0 mi West 8.1 mph - 0.00 in Snow Light Snow
1:24 PM 30.2 °F 22.6 °F 24.8 °F 80% 29.90 in 2.0 mi West 8.1 mph - 0.00 in Snow Light Snow
1:26 PM 30.2 °F 21.9 °F 24.8 °F 80% 29.90 in 4.0 mi West 9.2 mph - 0.00 in Snow Light Snow
1:32 PM 30.2 °F 20.8 °F 24.8 °F 80% 29.91 in 0.8 mi West 11.5 mph 18.4 mph 0.00 in Snow Light Snow
1:46 PM 28.4 °F 17.5 °F 23.0 °F 80% 29.91 in 0.2 mi West 13.8 mph 24.2 mph 0.00 in Snow Heavy Snow
1:53 PM 27.0 °F 16.1 °F 24.1 °F 89% 29.96 in 0.2 mi West 12.7 mph 23.0 mph 0.00 in Fog , Snow Light Snow
2:02 PM 26.6 °F 13.8 °F 23.0 °F 86% 29.92 in 0.8 mi West 17.3 mph 27.6 mph 0.00 in Snow Light Snow
2:05 PM 28.4 °F 17.0 °F 21.2 °F 74% 29.92 in 1.0 mi West 15.0 mph 27.6 mph 0.00 in Snow Light Snow
2:15 PM 28.4 °F 16.2 °F 19.4 °F 69% 29.92 in 4.0 mi West 17.3 mph 26.5 mph 0.00 in Snow Light Snow
2:23 PM 28.4 °F 16.2 °F 21.2 °F 74% 29.92 in 2.5 mi West 17.3 mph 26.5 mph 0.00 in Snow Light Snow
2:31 PM 28.4 °F 17.0 °F 21.2 °F 74% 29.92 in 7.0 mi West 15.0 mph 26.5 mph 0.00 in   Overcast
2:40 PM 28.4 °F 14.4 °F 21.2 °F 74% 29.92 in 1.5 mi West 23.0 mph 29.9 mph 0.00 in Snow Light Snow
2:48 PM 26.6 °F 14.3 °F 21.2 °F 80% 29.92 in 0.2 mi West 16.1 mph 32.2 mph 0.00 in Snow Heavy Snow
2:49 PM 26.1 °F 13.1 °F 21.0 °F 81% 29.97 in 0.2 mi West 17.3 mph 32.2 mph 0.00 in Snow Heavy Snow
2:57 PM 26.6 °F 14.7 °F 21.2 °F 80% 29.92 in 0.5 mi West 15.0 mph 24.2 mph 0.00 in Snow Snow
3:03 PM 28.4 °F 16.6 °F 19.4 °F 69% 29.92 in 1.0 mi West 16.1 mph 24.2 mph 0.00 in Snow Light Snow
3:07 PM 28.4 °F 16.6 °F 19.4 °F 69% 29.92 in 4.0 mi West 16.1 mph 23.0 mph 0.00 in Snow Light Snow
3:33 PM 28.4 °F 14.4 °F 17.6 °F 64% 29.93 in 6.0 mi West 23.0 mph 29.9 mph 0.00 in Snow Light Snow
3:53 PM 28.0 °F 16.5 °F 17.1 °F 63% 29.98 in 10.0 mi West 15.0 mph 23.0 mph 0.00 in   Overcast
4:53 PM 27.0 °F 16.7 °F 17.1 °F 66% 30.01 in 2.0 mi West 11.5 mph 23.0 mph 0.00 in Snow Light Snow
5:01 PM 26.6 °F 16.2 °F 17.6 °F 69% 29.96 in 6.0 mi West 11.5 mph - 0.00 in Snow Light Snow
5:06 PM 26.6 °F 14.3 °F 17.6 °F 69% 29.97 in 1.0 mi West 16.1 mph 25.3 mph 0.00 in Snow Light Snow
5:08 PM 26.6 °F 14.3 °F 19.4 °F 74% 29.97 in 0.2 mi West 16.1 mph 25.3 mph 0.00 in Snow Heavy Snow
5:15 PM 24.8 °F 14.0 °F 21.2 °F 86% 29.96 in 0.2 mi West 11.5 mph 25.3 mph 0.00 in Fog , Snow Snow
5:20 PM 26.6 °F 16.2 °F 19.4 °F 74% 29.96 in 0.8 mi West 11.5 mph - 0.00 in Snow Light Snow
5:22 PM 26.6 °F 16.8 °F 19.4 °F 74% 29.96 in 1.8 mi West 10.4 mph 19.6 mph 0.00 in Snow Light Snow
5:29 PM 26.6 °F 15.2 °F 19.4 °F 74% 29.96 in 6.0 mi West 13.8 mph 19.6 mph 0.00 in   Haze
5:32 PM 26.6 °F 14.7 °F 19.4 °F 74% 29.97 in 1.5 mi West 15.0 mph 23.0 mph 0.00 in Snow Light Snow
5:37 PM 26.6 °F 15.7 °F 19.4 °F 74% 29.97 in 0.2 mi West 12.7 mph 23.0 mph 0.00 in Snow Heavy Snow
5:46 PM 24.8 °F 14.6 °F 21.2 °F 86% 29.97 in 0.2 mi West 10.4 mph 23.0 mph 0.00 in Fog , Snow Snow
5:53 PM 25.0 °F 11.7 °F 21.0 °F 85% 30.02 in 0.2 mi West 17.3 mph 26.5 mph 0.00 in Fog , Snow Snow
6:03 PM 24.8 °F 10.0 °F 19.4 °F 80% 29.98 in 0.5 mi West 21.9 mph 27.6 mph 0.00 in Snow Snow
6:14 PM 24.8 °F 12.4 °F 19.4 °F 80% 29.98 in 1.0 mi West 15.0 mph 26.5 mph 0.00 in Snow Light Snow
6:25 PM 24.8 °F 12.9 °F 19.4 °F 80% 29.98 in 2.0 mi West 13.8 mph 19.6 mph 0.00 in Snow Light Snow
6:34 PM 24.8 °F 13.4 °F 19.4 °F 80% 29.98 in 0.8 mi West 12.7 mph - 0.00 in Snow Light Snow
6:41 PM 24.8 °F 14.0 °F 21.2 °F 86% 29.99 in 0.2 mi West 11.5 mph - 0.00 in Fog , Snow Heavy Snow
6:53 PM 24.1 °F 12.0 °F 21.0 °F 88% 30.04 in 0.5 mi West 13.8 mph 19.6 mph 0.00 in Fog , Snow Light Snow
7:01 PM 24.8 °F 14.6 °F 21.2 °F 86% 29.99 in 1.2 mi West 10.4 mph 19.6 mph 0.00 in Snow Light Snow
7:06 PM 24.8 °F 14.6 °F 21.2 °F 86% 29.99 in 2.0 mi West 10.4 mph 19.6 mph 0.00 in Snow Light Snow
7:13 PM 24.8 °F 13.4 °F 19.4 °F 80% 29.99 in 0.8 mi West 12.7 mph 18.4 mph 0.00 in Snow Light Snow
7:25 PM 24.8 °F 14.6 °F 21.2 °F 86% 29.99 in 0.2 mi West 10.4 mph - 0.00 in Fog , Snow Heavy Snow
7:33 PM 24.8 °F 14.6 °F 21.2 °F 86% 30.00 in 1.0 mi WNW 10.4 mph 20.7 mph 0.00 in Snow Light Snow
7:50 PM 24.8 °F 14.6 °F 19.4 °F 80% 30.00 in 2.0 mi West 10.4 mph - 0.00 in Snow Light Snow
7:53 PM 24.1 °F 12.5 °F 19.9 °F 84% 30.06 in 3.0 mi West 12.7 mph 19.6 mph 0.00 in Snow Light Snow
7:58 PM 24.8 °F 12.9 °F 19.4 °F 80% 30.00 in 1.8 mi West 13.8 mph 23.0 mph 0.00 in Snow Light Snow
8:20 PM 24.8 °F 13.4 °F 21.2 °F 86% 30.01 in 0.5 mi West 12.7 mph 19.6 mph 0.00 in Fog , Snow Snow
8:31 PM 24.8 °F 14.0 °F 19.4 °F 80% 30.01 in 2.0 mi West 11.5 mph 24.2 mph 0.00 in Snow Light Snow
8:43 PM 24.8 °F 14.6 °F 19.4 °F 80% 30.02 in 3.0 mi WNW 10.4 mph 18.4 mph 0.00 in Snow Light Snow
8:46 PM 24.8 °F 15.3 °F 19.4 °F 80% 30.02 in 2.5 mi WNW 9.2 mph 18.4 mph 0.00 in Snow Light Snow
8:53 PM 25.0 °F 14.8 °F 19.9 °F 81% 30.07 in 2.5 mi West 10.4 mph 18.4 mph 0.00 in Snow Light Snow
9:11 PM 24.8 °F 14.0 °F 19.4 °F 80% 30.02 in 5.0 mi West 11.5 mph 18.4 mph 0.00 in Snow Light Snow
9:25 PM 24.8 °F 15.3 °F 19.4 °F 80% 30.02 in 10.0 mi West 9.2 mph 18.4 mph 0.00 in   Overcast
9:36 PM 24.8 °F 15.3 °F 21.2 °F 86% 30.02 in 1.8 mi West 9.2 mph - 0.00 in Snow Light Snow
9:40 PM 24.8 °F 14.0 °F 21.2 °F 86% 30.02 in 3.0 mi West 11.5 mph - 0.00 in Snow Light Snow
9:53 PM 25.0 °F 14.8 °F 21.0 °F 85% 30.07 in 3.0 mi West 10.4 mph - 0.00 in Snow Light Snow
10:06 PM 24.8 °F 13.4 °F 21.2 °F 86% 30.03 in 1.8 mi West 12.7 mph - 0.00 in Snow Light Snow
10:18 PM 24.8 °F 14.6 °F 19.4 °F 80% 30.03 in 4.0 mi West 10.4 mph - 0.00 in Snow Light Snow
10:34 PM 24.8 °F 14.6 °F 19.4 °F 80% 30.03 in 10.0 mi WSW 10.4 mph - 0.00 in   Overcast
10:53 PM 26.1 °F 14.5 °F 19.0 °F 75% 30.08 in 10.0 mi WSW 13.8 mph - 0.00 in   Overcast
11:53 PM 26.1 °F 15.0 °F 18.0 °F 71% 30.08 in 10.0 mi West 12.7 mph - 0.00 in   Mostly Cloudy